User: anonymous   Login
Location: Unspecified
(0.0000°N, 0.0000°E)
Time: 21:23:06
(UTC+00:00)
Language:

SAR-Lupe-4 - Orbit

View from above orbital plane
View from above orbital plane
View from above satellite
View from above satellite

Ground track
Ground track

The orbit data is extracted from the following two-line orbital elements,

1 32750U 08014A   20203.14704400  .00000700  00000-0  26063-4 0    08
2 32750  98.1956  10.9600 0002518  53.1976 351.6093 15.27518742    09
Epoch (UTC): 21 July 2020 03:31:44
Eccentricity: 0.0002518
inclination: 98.1956°
perigee height: 481 km
apogee height: 485 km
right ascension of ascending node: 10.9600°
argument of perigee: 53.1976°
revolutions per day: 15.27518742
mean anomaly at epoch: 351.6093°
orbit number at epoch: 0

The dashed part of the orbit path shows where the satellite is in the earth's shadow,  

DLR